TimeEDT,TemperatureF,Dew PointF,Humidity,Sea Level PressureIn,VisibilityMPH,Wind Direction,Wind SpeedMPH,Gust SpeedMPH,PrecipitationIn,Events,Conditions,WindDirDegrees,DateUTC
12:15 AM,28.9,22.3,76,29.70,10.0,West,15.0,24.2,N/A,,Overcast,260,2013-03-19 04:15:00
12:35 AM,28.4,21.9,77,29.71,10.0,West,16.1,21.9,N/A,,Overcast,260,2013-03-19 04:35:00
12:54 AM,27.5,20.5,75,29.71,10.0,West,20.7,32.2,N/A,,Overcast,260,2013-03-19 04:54:00
1:15 AM,27.0,19.4,73,29.71,10.0,West,23.0,32.2,N/A,,Overcast,280,2013-03-19 05:15:00
1:35 AM,26.4,19.0,74,29.72,10.0,West,12.7,27.6,N/A,Snow,Light Snow,260,2013-03-19 05:35:00
1:54 AM,25.7,17.6,71,29.72,10.0,West,23.0,35.7,N/A,Snow,Light Snow,260,2013-03-19 05:54:00
2:15 AM,25.7,18.5,74,29.72,10.0,West,15.0,26.5,N/A,Snow,Light Snow,270,2013-03-19 06:15:00
2:34 AM,25.5,18.9,76,29.72,7.0,WSW,12.7,24.2,N/A,Snow,Light Snow,250,2013-03-19 06:34:00
2:55 AM,24.8,17.1,72,29.73,10.0,WSW,15.0,21.9,N/A,Snow,Light Snow,250,2013-03-19 06:55:00
3:15 AM,23.9,16.0,72,29.73,7.0,West,15.0,23.0,N/A,Snow,Light Snow,260,2013-03-19 07:15:00
3:34 AM,23.7,14.7,69,29.73,10.0,WSW,13.8,27.6,N/A,Snow,Light Snow,250,2013-03-19 07:34:00
3:55 AM,23.5,14.7,69,29.74,10.0,WSW,15.0,24.2,N/A,Snow,Light Snow,250,2013-03-19 07:55:00
4:14 AM,23.5,14.9,70,29.73,10.0,West,12.7,23.0,N/A,Snow,Light Snow,260,2013-03-19 08:14:00
4:34 AM,23.0,14.9,71,29.73,7.0,West,16.1,21.9,N/A,Snow,Light Snow,260,2013-03-19 08:34:00
4:55 AM,22.8,15.6,74,29.73,7.0,West,12.7,18.4,N/A,Snow,Light Snow,260,2013-03-19 08:55:00
5:14 AM,22.6,15.1,73,29.73,7.0,WSW,13.8,19.6,N/A,Snow,Light Snow,250,2013-03-19 09:14:00
5:34 AM,22.6,14.0,69,29.74,10.0,WSW,11.5,23.0,N/A,Snow,Light Snow,250,2013-03-19 09:34:00
5:55 AM,22.5,14.0,70,29.75,10.0,West,16.1,23.0,N/A,Snow,Light Snow,260,2013-03-19 09:55:00
6:14 AM,22.1,13.1,68,29.76,10.0,WSW,18.4,28.8,N/A,Snow,Light Snow,250,2013-03-19 10:14:00
6:35 AM,22.1,14.2,72,29.77,7.0,SW,15.0,26.5,N/A,Snow,Light Snow,230,2013-03-19 10:35:00
6:55 AM,21.6,15.4,77,29.77,5.0,WSW,13.8,18.4,N/A,Snow,Light Snow,240,2013-03-19 10:55:00
7:14 AM,21.2,14.9,77,29.77,5.0,WSW,13.8,23.0,N/A,Snow,Light Snow,240,2013-03-19 11:14:00
7:35 AM,20.8,15.4,80,29.78,2.5,WSW,16.1,23.0,N/A,Snow,Light Snow,250,2013-03-19 11:35:00
7:55 AM,20.3,15.6,82,29.78,2.0,WSW,16.1,20.7,N/A,Snow,Light Snow,250,2013-03-19 11:55:00
8:14 AM,19.9,14.7,80,29.78,1.8,WSW,16.1,21.9,N/A,Snow,Light Snow,250,2013-03-19 12:14:00
8:35 AM,20.1,14.7,80,29.79,1.5,SW,10.4,19.6,N/A,Snow,Light Snow,230,2013-03-19 12:35:00
8:55 AM,20.1,15.1,81,29.78,1.5,WSW,15.0,20.7,N/A,Snow,Light Snow,240,2013-03-19 12:55:00
9:14 AM,19.9,15.4,83,29.78,1.0,WSW,9.2,18.4,N/A,Snow,Light Snow,250,2013-03-19 13:14:00
9:35 AM,20.1,15.8,83,29.78,1.0,West,10.4,17.3,N/A,Snow,Light Snow,260,2013-03-19 13:35:00
9:54 AM,20.3,15.6,82,29.79,1.8,WSW,8.1,19.6,N/A,Snow,Light Snow,240,2013-03-19 13:54:00
10:14 AM,20.3,15.8,83,29.79,1.0,WSW,11.5,17.3,N/A,Snow,Light Snow,250,2013-03-19 14:14:00
10:35 AM,20.3,15.6,82,29.80,1.2,WSW,11.5,19.6,N/A,Snow,Light Snow,240,2013-03-19 14:35:00
10:54 AM,20.8,15.1,78,29.81,1.8,West,15.0,-,N/A,Snow,Light Snow,260,2013-03-19 14:54:00
11:15 AM,21.2,14.9,77,29.82,2.5,WSW,10.4,19.6,N/A,Snow,Light Snow,250,2013-03-19 15:15:00
11:35 AM,20.8,14.7,77,29.83,2.0,West,15.0,26.5,N/A,Snow,Light Snow,260,2013-03-19 15:35:00
11:54 AM,21.4,14.9,76,29.83,2.5,West,12.7,23.0,N/A,Snow,Light Snow,260,2013-03-19 15:54:00
12:15 PM,21.7,14.7,74,29.84,2.5,West,13.8,24.2,N/A,Snow,Light Snow,260,2013-03-19 16:15:00
12:35 PM,22.1,14.9,74,29.84,2.5,West,16.1,26.5,N/A,Snow,Light Snow,270,2013-03-19 16:35:00
12:54 PM,22.1,14.9,74,29.85,4.0,West,13.8,23.0,N/A,Snow,Light Snow,260,2013-03-19 16:54:00
1:15 PM,22.8,15.4,73,29.86,4.0,WSW,10.4,21.9,N/A,Snow,Light Snow,250,2013-03-19 17:15:00
1:35 PM,23.5,15.8,72,29.86,5.0,West,17.3,21.9,N/A,Snow,Light Snow,260,2013-03-19 17:35:00
2:15 PM,24.8,15.6,68,29.87,10.0,West,16.1,32.2,N/A,Snow,Light Snow,260,2013-03-19 18:15:00
2:34 PM,25.7,15.8,66,29.87,10.0,West,21.9,28.8,N/A,,Overcast,260,2013-03-19 18:34:00
2:55 PM,26.6,15.6,63,29.88,10.0,West,26.5,34.5,N/A,,Overcast,270,2013-03-19 18:55:00
3:15 PM,27.5,16.2,62,29.88,10.0,West,19.6,29.9,N/A,,Overcast,270,2013-03-19 19:15:00
3:34 PM,28.8,17.4,63,29.88,10.0,West,21.9,33.4,N/A,,Mostly Cloudy,280,2013-03-19 19:34:00
3:55 PM,30.0,18.0,61,29.88,10.0,West,25.3,33.4,N/A,,Mostly Cloudy,270,2013-03-19 19:55:00
4:14 PM,29.5,18.0,62,29.89,10.0,West,17.3,32.2,N/A,,Mostly Cloudy,270,2013-03-19 20:14:00
4:34 PM,29.7,16.7,59,29.90,10.0,West,23.0,36.8,N/A,,Overcast,270,2013-03-19 20:34:00
4:55 PM,29.3,16.0,58,29.90,10.0,West,20.7,29.9,N/A,,Overcast,270,2013-03-19 20:55:00
5:14 PM,30.0,16.9,58,29.91,10.0,West,21.9,29.9,N/A,,Overcast,280,2013-03-19 21:14:00
5:35 PM,31.8,17.8,56,29.92,10.0,West,23.0,31.1,N/A,,Overcast,270,2013-03-19 21:35:00
5:55 PM,31.3,16.9,55,29.92,10.0,West,19.6,-,N/A,,Mostly Cloudy,280,2013-03-19 21:55:00
6:14 PM,31.6,16.7,54,29.92,10.0,West,23.0,29.9,N/A,,Scattered Clouds,270,2013-03-19 22:14:00
6:35 PM,31.6,15.1,50,29.92,10.0,West,21.9,32.2,N/A,,Scattered Clouds,270,2013-03-19 22:35:00
6:55 PM,31.6,14.9,50,29.93,10.0,West,20.7,28.8,N/A,,Clear,280,2013-03-19 22:55:00
7:14 PM,31.1,15.1,52,29.94,10.0,West,17.3,31.1,N/A,,Clear,270,2013-03-19 23:14:00
7:35 PM,30.4,14.5,52,29.95,10.0,West,16.1,25.3,N/A,,Clear,270,2013-03-19 23:35:00
7:55 PM,29.8,14.9,54,29.95,10.0,West,13.8,25.3,N/A,,Clear,270,2013-03-19 23:55:00
8:14 PM,29.7,14.9,54,29.95,10.0,West,17.3,25.3,N/A,,Clear,280,2013-03-20 00:14:00
8:35 PM,29.7,14.7,54,29.96,10.0,West,17.3,23.0,N/A,,Clear,270,2013-03-20 00:35:00
8:54 PM,29.3,15.3,56,29.96,10.0,West,11.5,21.9,N/A,,Clear,260,2013-03-20 00:54:00
9:35 PM,29.5,15.6,56,29.97,10.0,West,9.2,-,N/A,,Clear,260,2013-03-20 01:35:00
9:54 PM,29.3,15.8,57,29.97,10.0,West,10.4,-,N/A,,Clear,270,2013-03-20 01:54:00
10:15 PM,29.5,16.3,58,29.97,10.0,West,11.5,-,N/A,,Scattered Clouds,270,2013-03-20 02:15:00
10:35 PM,29.3,16.7,59,29.98,10.0,West,13.8,18.4,N/A,,Mostly Cloudy,280,2013-03-20 02:35:00
10:54 PM,29.8,16.5,58,29.98,10.0,West,19.6,26.5,N/A,,Mostly Cloudy,280,2013-03-20 02:54:00
11:15 PM,29.3,16.5,59,29.98,10.0,West,17.3,21.9,N/A,,Scattered Clouds,270,2013-03-20 03:15:00
11:34 PM,28.9,16.3,59,29.98,10.0,West,17.3,23.0,N/A,,Scattered Clouds,280,2013-03-20 03:34:00
11:55 PM,28.4,16.3,61,29.98,10.0,West,18.4,21.9,N/A,,Clear,270,2013-03-20 03:55:00